Weather History for KHUT - March, 2014

Change the Weather History Date:

Saturday, March 22, 2014

  Actual Average Record
Temperature  
Mean Temperature 38 °F -  
Max Temperature 50 °F 57 °F 84 °F (2011)
Min Temperature 28 °F 33 °F 9 °F (2002)
Degree Days  
Heating Degree Days 27    
Moisture  
Dew Point 17 °F    
Average Humidity 46    
Maximum Humidity 72    
Minimum Humidity 22    
Precipitation  
Precipitation 0.00 in - - ()
Sea Level Pressure  
Sea Level Pressure 30.28 in    
Wind  
Wind Speed 16 mph (NNE)    
Max Wind Speed 23 mph    
Max Gust Speed 32 mph    
Visibility 10 miles    
Events      
Averages and records for this station are not official NWS values.
T = Trace of Precipitation, MM = Missing Value Source: NWS Daily Summary

Daily Weather History Graph

Daily Weather History Graph

Search for Another Location

Airport or City:

Trip Planner

Search our weather history database for the weather conditions in past years. The results will help you decide how hot, cold, wet, or windy it might be!

Date:

Astronomy

Mar. 22, 2014 Rise Set
Actual Time 7:31 AM CDT 7:45 PM CDT
Civil Twilight 7:05 AM CDT 8:11 PM CDT
Nautical Twilight 6:34 AM CDT 8:42 PM CDT
Astronomical Twilight 6:03 AM CDT 9:13 PM CDT
Moon 1:01 AM CDT (3/22) 11:21 AM CDT (3/22)
Length of Visible Light 13h 06m
Length of Day
12h 13m
Waning Gibbous, 65% of the Moon is Illuminated
Mar 22
Waning Gibbous
Mar 23
Last Quarter
Mar 30
New
Apr 7
First Quarter
Apr 15
Full

Hourly Weather History & Observations

Time (CDT) Temp. Windchill Dew Point Humidity Pressure Visibility Wind Dir Wind Speed Gust Speed Precip Events Conditions
12:52 AM 43.0 °F 35.1 °F 28.0 °F 56% 30.16 in 10.0 mi NNE 17.3 mph 27.6 mph N/A   Clear
1:52 AM 39.9 °F 31.1 °F 28.9 °F 65% 30.17 in 10.0 mi NNE 17.3 mph 28.8 mph N/A   Clear
2:52 AM 37.0 °F 27.7 °F 28.0 °F 70% 30.19 in 10.0 mi NNE 16.1 mph 27.6 mph N/A   Clear
3:52 AM 36.0 °F 26.3 °F 27.0 °F 70% 30.19 in 10.0 mi NNE 16.1 mph 21.9 mph N/A   Clear
4:52 AM 35.1 °F 24.5 °F 23.0 °F 61% 30.21 in 10.0 mi NE 18.4 mph 27.6 mph N/A   Clear
5:52 AM 33.1 °F 23.9 °F 21.9 °F 64% 30.22 in 10.0 mi NNE 12.7 mph 20.7 mph N/A   Clear
6:52 AM 30.9 °F 22.2 °F 21.0 °F 67% 30.25 in 10.0 mi NE 10.4 mph 20.7 mph N/A   Clear
7:52 AM 28.9 °F 21.1 °F 21.0 °F 72% 30.31 in 10.0 mi NNE 8.1 mph - N/A   Clear
8:52 AM 30.0 °F 18.7 °F 18.0 °F 61% 30.32 in 10.0 mi NNE 16.1 mph 23.0 mph N/A   Clear
9:52 AM 30.9 °F 20.7 °F 15.1 °F 52% 30.33 in 10.0 mi NE 13.8 mph 24.2 mph N/A   Clear
10:52 AM 37.0 °F 28.1 °F 16.0 °F 42% 30.32 in 10.0 mi NNE 15.0 mph 23.0 mph N/A   Clear
11:52 AM 39.0 °F 30.3 °F 16.0 °F 39% 30.31 in 10.0 mi NE 16.1 mph 23.0 mph N/A   Clear
12:52 PM 42.1 °F 34.9 °F 15.1 °F 34% 30.28 in 10.0 mi NE 13.8 mph 20.7 mph N/A   Clear
1:52 PM 45.0 °F 37.6 °F 14.0 °F 29% 30.26 in 10.0 mi NNE 17.3 mph 24.2 mph N/A   Clear
2:52 PM 48.0 °F - 12.9 °F 24% 30.22 in 10.0 mi NE 15.0 mph 24.2 mph N/A   Clear
3:52 PM 48.0 °F - 10.9 °F 22% 30.22 in 10.0 mi NE 13.8 mph 20.7 mph N/A   Clear
4:52 PM 48.0 °F - 10.9 °F 22% 30.21 in 10.0 mi NE 16.1 mph 23.0 mph N/A   Clear
5:52 PM 46.9 °F - 10.9 °F 23% 30.23 in 10.0 mi NNE 17.3 mph 23.0 mph N/A   Clear
6:52 PM 42.1 °F 34.2 °F 8.1 °F 25% 30.27 in 10.0 mi NNE 16.1 mph 24.2 mph N/A   Clear
7:52 PM 37.0 °F 25.9 °F 6.1 °F 28% 30.32 in 10.0 mi NNE 23.0 mph 31.1 mph N/A   Overcast
8:52 PM 34.0 °F 22.1 °F 9.0 °F 35% 30.38 in 10.0 mi NNE 21.9 mph 32.2 mph N/A   Overcast
9:52 PM 30.9 °F 18.1 °F 14.0 °F 50% 30.45 in 10.0 mi NNE 21.9 mph 29.9 mph N/A   Overcast
10:52 PM 30.0 °F 20.0 °F 12.0 °F 47% 30.47 in 10.0 mi NNE 12.7 mph 24.2 mph N/A   Overcast
11:52 PM 28.0 °F 15.7 °F 14.0 °F 56% 30.48 in 10.0 mi North 17.3 mph 23.0 mph N/A   Partly Cloudy